When you browse on this site, cookies collect data to enhance your experience and personalize the content and advertising you see.
Visit our Privacy Policy to learn more. By continuing to use the site, you agree to this use of cookies and data.
  • en Suisse
  • Liste des pays
  • À 7 jours
  • Température de l'eau
  • Carte satellitaire
  • Carte météo
  • Widgets météo
  • user-avatar
    Se connecter

    Météo par heure à Obech

    Ce jour, 21 Novembre, Mercredi

    Heure Température Précipitation Vent Pression Humidité
    00:00 -4°C° 0 mm 4 m/s 756 mmHg 89%
    01:00 -4°C° 0 mm 3 m/s 756 mmHg 91%
    02:00 -5°C° 0 mm 3 m/s 756 mmHg 91%
    03:00 -5°C° 0 mm 3 m/s 756 mmHg 92%
    04:00 -5°C° 0 mm 3 m/s 756 mmHg 92%
    05:00 -5°C° 0 mm 3 m/s 756 mmHg 92%
    06:00 -5°C° 0 mm 3 m/s 756 mmHg 92%
    07:00 -6°C° 0 mm 3 m/s 756 mmHg 92%
    08:00 -5°C° 0 mm 3 m/s 756 mmHg 89%
    09:00 -5°C° 0 mm 3 m/s 756 mmHg 86%
    10:00 -4°C° 0 mm 4 m/s 756 mmHg 82%
    11:00 -4°C° 0 mm 4 m/s 756 mmHg 79%
    12:00 -3°C° 0 mm 4 m/s 756 mmHg 78%
    13:00 -3°C° 0 mm 4 m/s 756 mmHg 77%
    14:00 -2°C° 0 mm 3 m/s 756 mmHg 75%
    15:00 -2°C° 0 mm 3 m/s 756 mmHg 77%
    16:00 -4°C° 0 mm 3 m/s 756 mmHg 79%
    17:00 -4°C° 0 mm 3 m/s 756 mmHg 81%
    18:00 -3°C° 0 mm 2 m/s 756 mmHg 83%
    19:00 -4°C° 0 mm 2 m/s 756 mmHg 84%
    20:00 -4°C° 0 mm 2 m/s 756 mmHg 86%
    21:00 -4°C° 0 mm 2 m/s 757 mmHg 86%
    22:00 -4°C° 0 mm 2 m/s 757 mmHg 86%
    23:00 -2°C° 0 mm 1 m/s 757 mmHg 86%

    Demain, 22 Novembre, Jeudi

    Heure Température Précipitation Vent Pression Humidité
    00:00 -2°C° 0 mm 1 m/s 757 mmHg 86%
    01:00 -2°C° 0 mm 1 m/s 757 mmHg 86%
    02:00 -2°C° 0 mm 1 m/s 757 mmHg 87%
    03:00 -2°C° 0 mm 1 m/s 757 mmHg 87%
    04:00 -3°C° 0 mm 1 m/s 757 mmHg 87%
    05:00 -3°C° 0 mm 1 m/s 756 mmHg 87%
    06:00 -3°C° 0 mm 1 m/s 756 mmHg 87%
    07:00 -3°C° 0 mm 1 m/s 756 mmHg 87%
    08:00 -3°C° 0 mm 1 m/s 756 mmHg 87%
    09:00 -2°C° 0 mm 1 m/s 757 mmHg 82%
    10:00 -1°C° 0 mm 1 m/s 757 mmHg 77%
    11:00 0°C° 0 mm 1 m/s 757 mmHg 73%
    12:00 0°C° 0 mm 1 m/s 757 mmHg 71%
    13:00 +1°C° 0 mm 1 m/s 757 mmHg 69%
    14:00 +1°C° 0 mm 1 m/s 756 mmHg 67%
    15:00 0°C° 0 mm 1 m/s 756 mmHg 71%
    16:00 -1°C° 0 mm 1 m/s 756 mmHg 75%
    17:00 -1°C° 0 mm 1 m/s 756 mmHg 79%
    18:00 -2°C° 0 mm 1 m/s 756 mmHg 79%
    19:00 -2°C° 0 mm 1 m/s 756 mmHg 80%
    20:00 -2°C° 0 mm 1 m/s 756 mmHg 80%
    21:00 -2°C° 0 mm 1 m/s 756 mmHg 80%
    22:00 -2°C° 0 mm 1 m/s 756 mmHg 80%
    23:00 -2°C° 0 mm 1 m/s 756 mmHg 81%

    Après-demain, 23 Novembre, Vendredi

    Heure Température Précipitation Vent Pression Humidité
    00:00 -2°C° 0 mm 1 m/s 756 mmHg 81%
    01:00 -2°C° 0 mm 1 m/s 756 mmHg 81%
    02:00 -2°C° 0 mm 1 m/s 756 mmHg 82%
    03:00 -2°C° 0 mm 1 m/s 757 mmHg 82%
    04:00 -3°C° 0 mm 1 m/s 757 mmHg 83%
    05:00 -3°C° 0 mm 1 m/s 757 mmHg 84%
    06:00 -3°C° 0 mm 1 m/s 757 mmHg 84%
    07:00 -3°C° 0 mm 1 m/s 757 mmHg 85%
    08:00 -4°C° 0 mm 0 m/s 757 mmHg 86%
    09:00 -2°C° 0 mm 1 m/s 757 mmHg 82%
    10:00 -1°C° 0 mm 1 m/s 757 mmHg 78%
    11:00 -1°C° 0 mm 1 m/s 757 mmHg 74%
    12:00 0°C° 0 mm 1 m/s 757 mmHg 72%
    13:00 0°C° 0 mm 1 m/s 757 mmHg 71%
    14:00 +1°C° 0 mm 1 m/s 757 mmHg 70%
    15:00 -2°C° 0 mm 2 m/s 757 mmHg 74%
    16:00 -3°C° 0 mm 2 m/s 756 mmHg 78%
    17:00 -4°C° 0 mm 2 m/s 756 mmHg 83%
    18:00 -4°C° 0 mm 2 m/s 756 mmHg 83%
    19:00 -4°C° 0 mm 2 m/s 756 mmHg 83%
    20:00 -4°C° 0 mm 2 m/s 755 mmHg 82%
    21:00 -4°C° 0 mm 2 m/s 755 mmHg 81%
    22:00 -4°C° 0 mm 2 m/s 755 mmHg 80%
    23:00 -5°C° 0 mm 3 m/s 754 mmHg 79%

    24 Novembre, Samedi

    Heure Température Précipitation Vent Pression Humidité
    00:00 -5°C° 0 mm 3 m/s 754 mmHg 78%
    01:00 -4°C° 0 mm 2 m/s 753 mmHg 78%
    02:00 -4°C° 0 mm 2 m/s 753 mmHg 78%
    03:00 -3°C° 0 mm 2 m/s 752 mmHg 81%
    04:00 -3°C° 0 mm 2 m/s 752 mmHg 84%
    05:00 -3°C° 0 mm 2 m/s 751 mmHg 87%
    06:00 -3°C° 0 mm 2 m/s 751 mmHg 89%
    07:00 -3°C° 0 mm 2 m/s 750 mmHg 92%
    08:00 -3°C° 0 mm 2 m/s 750 mmHg 95%
    09:00 -2°C° 0 mm 2 m/s 750 mmHg 94%
    10:00 -1°C° 0 mm 3 m/s 750 mmHg 93%
    11:00 0°C° 0 mm 3 m/s 749 mmHg 92%
    12:00 +1°C° 0 mm 2 m/s 749 mmHg 93%
    13:00 +2°C° 0 mm 2 m/s 748 mmHg 93%
    14:00 +2°C° 0 mm 2 m/s 748 mmHg 93%
    15:00 +2°C° 0 mm 2 m/s 748 mmHg 94%
    16:00 +1°C° 0 mm 2 m/s 748 mmHg 94%
    17:00 +2°C° 0 mm 1 m/s 748 mmHg 95%
    18:00 +2°C° 0.1 mm 1 m/s 747 mmHg 95%
    19:00 +2°C° 0.1 mm 1 m/s 747 mmHg 95%
    20:00 +2°C° 0.1 mm 1 m/s 747 mmHg 96%
    21:00 +2°C° 0.2 mm 1 m/s 747 mmHg 96%
    22:00 +2°C° 0.2 mm 1 m/s 747 mmHg 96%
    23:00 +2°C° 0.2 mm 1 m/s 746 mmHg 96%

    25 Novembre, Dimanche

    Heure Température Précipitation Vent Pression Humidité
    00:00 +2°C° 0.4 mm 1 m/s 746 mmHg 97%
    01:00 +2°C° 0.4 mm 1 m/s 746 mmHg 97%
    02:00 +2°C° 0.4 mm 1 m/s 745 mmHg 97%
    03:00 +2°C° 0.6 mm 1 m/s 745 mmHg 97%
    04:00 +2°C° 0.6 mm 1 m/s 745 mmHg 98%
    05:00 +2°C° 0.6 mm 1 m/s 745 mmHg 98%
    06:00 +2°C° 0.2 mm 1 m/s 744 mmHg 98%
    07:00 +2°C° 0.2 mm 1 m/s 744 mmHg 98%
    08:00 +1°C° 0.2 mm 2 m/s 744 mmHg 98%
    09:00 +1°C° 0.1 mm 2 m/s 744 mmHg 97%
    10:00 +1°C° 0.1 mm 2 m/s 744 mmHg 96%
    11:00 +1°C° 0.1 mm 2 m/s 745 mmHg 96%
    12:00 +1°C° 0.1 mm 2 m/s 745 mmHg 95%
    13:00 +1°C° 0.1 mm 3 m/s 745 mmHg 95%
    14:00 +1°C° 0.1 mm 3 m/s 745 mmHg 94%
    15:00 0°C° 0.1 mm 3 m/s 745 mmHg 94%
    16:00 0°C° 0.1 mm 3 m/s 745 mmHg 95%
    17:00 0°C° 0.1 mm 3 m/s 745 mmHg 96%
    18:00 0°C° 0.1 mm 3 m/s 745 mmHg 96%
    19:00 0°C° 0.1 mm 3 m/s 746 mmHg 95%
    20:00 -1°C° 0.1 mm 3 m/s 746 mmHg 95%
    21:00 -1°C° 0 mm 3 m/s 746 mmHg 94%
    22:00 -1°C° 0 mm 3 m/s 746 mmHg 93%
    23:00 -1°C° 0 mm 3 m/s 747 mmHg 92%

    26 Novembre, Lundi

    Heure Température Précipitation Vent Pression Humidité
    00:00 -1°C° 0 mm 3 m/s 747 mmHg 91%
    01:00 -2°C° 0 mm 4 m/s 747 mmHg 90%
    02:00 -3°C° 0 mm 4 m/s 747 mmHg 88%
    03:00 -3°C° 0 mm 4 m/s 747 mmHg 87%
    04:00 -3°C° 0 mm 4 m/s 747 mmHg 86%
    05:00 -4°C° 0 mm 4 m/s 748 mmHg 85%
    06:00 -4°C° 0 mm 4 m/s 748 mmHg 84%
    07:00 -4°C° 0 mm 4 m/s 748 mmHg 84%
    08:00 -5°C° 0 mm 4 m/s 748 mmHg 84%
    09:00 -4°C° 0 mm 4 m/s 749 mmHg 80%
    10:00 -4°C° 0 mm 4 m/s 749 mmHg 77%
    11:00 -4°C° 0 mm 4 m/s 750 mmHg 73%
    12:00 -4°C° 0 mm 4 m/s 750 mmHg 71%
    13:00 -3°C° 0 mm 4 m/s 750 mmHg 70%
    14:00 -2°C° 0 mm 3 m/s 750 mmHg 69%
    15:00 -4°C° 0 mm 3 m/s 750 mmHg 73%
    16:00 -5°C° 0 mm 3 m/s 750 mmHg 77%
    17:00 -4°C° 0 mm 2 m/s 750 mmHg 81%
    18:00 -4°C° 0 mm 2 m/s 750 mmHg 82%
    19:00 -4°C° 0 mm 2 m/s 751 mmHg 82%
    20:00 -5°C° 0 mm 2 m/s 751 mmHg 82%
    21:00 -5°C° 0 mm 2 m/s 751 mmHg 82%
    22:00 -5°C° 0 mm 2 m/s 751 mmHg 82%
    23:00 -5°C° 0 mm 2 m/s 751 mmHg 82%
    Voir plus